Wind_Speed
21 19 19 18 17 16 18 19 20 20 20 20 21 23 23 23 22 23 23 24 24 24 23 22 22 21 21 21 21 21 21 22 22 23 23 24 24 24 25 25 26 26 26 27
23 20 21 21 19 20 20 20 20 21 23 24 25 24 24 24 24 24 25 25 25 24 23 23 23 23 22 23 23 23 23 24 24 25 25 26 26 26 27 28 27 28 28 28
23 21 22 22 21 21 21 22 22 21 25 27 26 26 25 25 25 26 26 26 25 25 25 25 25 24 25 25 25 25 25 26 26 26 27 27 27 28 28 28 29 30 30 30
24 23 24 23 22 22 23 23 24 23 24 28 26 24 25 26 26 26 27 26 26 26 26 26 25 25 26 27 27 26 26 26 27 28 28 29 28 29 29 30 30 31 30 31
25 25 25 24 24 25 26 26 25 24 24 27 27 26 28 28 27 27 27 27 27 27 27 27 27 27 28 28 28 28 27 28 28 29 30 30 30 29 30 30 30 30 30 30
26 25 24 25 26 25 26 28 25 26 27 28 28 28 30 29 28 28 28 28 28 27 27 28 28 28 28 28 28 28 29 29 29 30 30 31 30 31 31 30 30 30 30 30
26 26 26 27 27 26 28 29 28 28 30 30 30 31 31 29 28 28 28 28 28 29 28 28 28 28 28 28 29 29 29 29 30 30 31 31 32 32 32 31 31 31 31 31
27 27 28 29 27 27 30 31 29 30 31 31 31 31 31 30 29 29 28 28 28 29 28 28 28 28 28 28 29 29 29 29 30 30 31 32 33 33 33 32 32 32 32 32
28 29 30 30 28 29 31 31 31 31 31 31 32 31 31 30 30 30 29 28 28 28 28 28 28 29 29 29 29 29 29 30 30 31 31 32 32 32 32 32 32 32 32 32
29 30 31 32 30 31 31 31 32 31 31 31 31 31 30 30 30 29 29 29 29 28 28 27 28 29 29 29 29 29 29 30 30 31 31 32 32 32 32 32 32 32 32 32
31 31 32 32 30 30 31 31 31 31 31 30 30 30 30 29 30 30 29 29 29 28 27 27 28 28 28 29 29 30 30 31 31 31 31 31 31 31 31 31 31 31 31 32
31 31 31 30 29 30 29 29 29 29 30 30 29 29 29 29 29 29 28 28 28 28 28 28 28 29 30 29 30 31 31 31 31 31 31 31 30 30 30 30 31 31 30 30
31 31 31 30 29 30 30 29 29 29 29 29 28 28 28 27 27 27 27 27 27 28 28 29 28 29 30 30 30 30 31 31 31 31 31 31 30 30 29 29 30 30 30 31
31 31 31 30 29 29 28 28 28 28 27 27 27 26 26 26 26 26 26 27 27 28 28 28 29 29 30 30 30 30 30 30 30 30 30 30 30 29 29 29 29 30 30 30
30 30 30 29 28 27 27 27 27 26 25 25 25 24 24 25 25 26 26 27 27 27 27 27 28 29 29 30 30 29 28 28 29 29 29 28 29 28 28 28 29 29 28 29
30 29 28 28 27 27 27 26 26 25 25 25 25 24 24 25 25 26 26 25 25 25 25 26 27 28 28 29 28 27 27 27 28 28 28 28 28 28 28 28 28 28 28 29
28 28 28 27 27 26 26 26 26 26 25 24 24 24 24 24 24 24 24 24 24 24 25 26 26 27 27 28 27 27 26 26 27 27 28 28 28 28 28 28 28 28 28 29
27 27 27 27 26 26 26 26 26 25 24 24 23 23 23 23 23 23 23 23 24 24 25 26 26 26 26 26 26 26 26 26 26 27 27 27 27 27 27 27 27 27 27 27
25 25 26 26 25 26 26 25 25 25 24 23 23 23 23 23 23 23 23 23 24 24 25 25 25 26 25 24 25 25 26 26 26 26 26 26 27 27 27 27 27 27 27 27
24 24 25 25 25 24 23 23 23 23 23 23 23 23 23 23 23 23 23 23 24 25 25 25 25 25 25 24 25 25 25 25 25 25 25 25 25 26 26 26 26 26 26 25
23 23 24 24 23 23 22 22 22 21 21 22 22 22 22 22 23 23 23 23 24 24 24 25 25 25 24 24 25 26 25 25 25 25 25 25 25 25 26 26 26 26 25 25
23 22 22 22 22 23 22 22 21 21 21 22 22 22 22 22 22 22 22 23 23 24 24 24 24 24 24 25 25 25 25 25 26 26 25 26 25 25 25 25 25 25 26 26
21 21 22 22 22 22 22 22 21 21 22 22 22 23 23 22 22 22 22 22 23 24 24 23 24 24 25 25 25 25 25 26 26 26 26 26 25 25 25 25 25 26 26 25
20 20 21 21 21 21 21 21 22 22 22 23 23 23 23 22 22 22 23 23 24 24 23 24 25 25 25 25 25 25 26 26 25 26 26 26 25 25 25 25 25 25 25 25
19 20 20 20 20 21 21 21 22 22 22 22 22 22 22 22 23 24 24 24 24 24 23 24 24 24 25 25 25 25 25 25 26 26 26 25 25 24 25 25 25 25 25 25
19 20 20 20 20 20 21 21 21 20 21 21 22 22 23 23 24 24 24 23 22 23 23 24 24 24 24 24 24 25 25 26 26 26 25 25 24 25 25 25 25 25 25 25
19 19 19 20 20 19 20 20 20 20 20 20 21 22 22 22 22 22 22 22 22 22 22 23 24 24 24 24 25 25 26 26 25 25 25 25 25 24 24 24 24 24 25 25
Wind_Direction
247 251 256 254 250 254 266 272 275 276 274 276 279 283 287 291 294 296 298 297 298 298 299 298 297 297 298 298 300 302 304 306 307 307 307 308 308 309 309 308 308 309 306 305
248 248 254 259 258 255 260 268 271 274 275 277 279 280 284 288 291 294 294 294 295 296 298 297 296 296 295 296 298 299 301 302 304 305 305 305 307 307 307 307 306 308 309 307
253 250 256 261 260 262 266 266 265 268 275 281 282 284 285 288 290 291 292 293 293 294 294 295 296 294 294 295 297 297 297 299 301 301 302 303 305 305 305 305 306 307 308 306
255 253 255 255 259 264 267 267 266 266 274 280 283 285 285 286 289 291 292 292 292 294 294 294 294 294 294 294 295 296 297 298 299 300 300 302 302 304 305 304 305 306 307 307
256 255 259 261 260 261 267 267 269 270 270 276 280 287 289 289 290 291 291 292 293 294 294 294 294 294 294 294 294 294 295 296 297 298 300 302 302 303 303 304 304 305 306 306
256 258 259 262 262 262 268 272 270 273 275 277 279 283 286 289 290 291 291 293 292 293 293 293 294 293 293 293 293 293 294 295 296 297 299 300 300 301 303 303 303 304 305 306
257 260 262 265 266 265 263 267 270 272 274 276 279 281 283 284 286 288 289 290 291 292 293 294 294 293 292 292 293 293 293 294 295 297 300 301 301 301 300 301 301 303 304 305
256 258 261 264 266 265 265 265 268 271 274 276 278 278 280 284 285 285 286 289 291 292 291 292 293 293 293 293 293 293 294 295 297 298 300 301 301 301 301 300 301 302 303 303
257 260 263 264 265 265 267 268 270 272 273 274 276 278 280 281 284 285 286 288 290 291 292 292 292 292 293 293 292 293 294 296 297 298 299 300 302 302 301 302 303 303 303 302
256 259 262 264 265 265 267 269 270 272 274 273 275 277 277 278 282 283 284 286 288 289 291 291 292 293 292 293 294 295 296 297 298 299 300 300 301 302 303 303 304 305 304 303
258 257 258 261 263 267 268 267 269 271 274 275 274 276 277 278 280 281 283 286 288 288 288 291 292 292 293 295 295 296 296 297 298 300 301 301 301 301 302 303 304 306 306 305
256 256 260 265 266 269 268 267 270 272 271 273 274 275 277 279 279 280 283 285 285 288 289 290 291 292 292 293 294 295 295 296 298 299 301 300 301 301 303 304 305 306 307 306
253 256 259 265 267 269 270 270 271 273 273 272 274 275 277 279 281 283 284 286 286 289 291 291 292 291 292 293 293 294 295 297 298 300 301 301 302 302 303 304 306 307 308 308
253 256 260 263 267 269 271 272 272 271 273 274 276 277 277 279 283 287 288 288 288 290 293 294 295 295 296 295 295 297 298 298 300 301 302 303 305 305 305 306 307 308 308 310
254 257 260 262 264 267 269 271 272 271 273 274 277 280 280 282 285 287 287 287 289 292 293 295 297 298 300 299 297 297 299 300 301 303 304 305 306 306 307 308 309 309 309 310
254 257 259 263 266 267 268 270 271 272 273 275 278 280 281 283 284 286 287 288 290 292 293 295 297 298 299 299 298 299 301 303 304 304 305 306 306 307 308 309 309 310 310 311
253 256 258 260 263 264 266 268 269 270 272 275 278 278 279 281 283 285 286 288 288 292 295 297 300 302 301 301 300 301 302 304 306 306 307 308 308 309 310 309 308 309 309 311
255 256 257 259 261 262 265 269 269 270 271 274 277 277 279 281 284 285 286 286 288 291 295 298 300 301 301 301 302 302 303 304 305 306 306 308 308 308 310 312 312 312 313 312
254 254 255 256 258 261 264 266 267 269 269 271 274 275 277 280 282 283 284 286 289 292 296 299 300 301 301 302 303 304 304 305 305 306 307 307 307 308 310 311 312 312 313 313
252 252 253 255 256 259 263 266 267 267 267 269 272 275 278 281 282 283 285 288 291 294 296 298 299 301 301 302 304 306 306 306 306 306 307 308 309 309 310 310 311 312 313 313
250 253 254 254 255 257 260 263 263 263 267 269 273 276 278 281 284 286 288 289 291 293 294 295 297 300 301 302 304 306 306 306 306 306 307 308 310 310 310 310 310 312 313 314
253 255 254 254 255 256 258 260 261 263 267 271 274 276 278 281 284 286 289 291 292 292 293 295 297 299 300 302 303 305 305 305 306 306 306 307 309 310 310 311 311 313 313 314
253 255 255 255 255 256 258 259 262 265 268 271 274 276 277 280 283 287 290 291 292 293 294 295 297 298 299 301 302 304 305 305 306 306 306 307 308 310 310 310 310 311 312 313
253 256 258 257 256 256 258 260 262 266 270 273 275 277 279 282 285 287 289 290 292 294 295 296 297 297 299 301 302 303 305 306 306 306 306 307 307 307 307 308 309 310 311 312
254 256 258 257 257 257 259 261 263 265 269 272 276 279 282 283 285 287 289 290 290 292 294 296 297 298 299 301 302 304 306 306 306 306 306 306 305 305 306 307 308 308 309 310
256 257 256 257 258 258 260 263 267 268 270 274 277 279 282 284 286 288 290 291 292 293 294 295 297 298 298 299 301 303 305 306 307 307 306 305 305 306 307 307 306 306 307 308
259 259 259 259 259 262 263 264 266 269 272 274 276 278 281 283 286 288 291 292 293 294 295 297 298 298 299 299 299 301 304 306 306 307 307 306 305 305 305 306 306 305 306 307
Height
5891 5892 5893 5893 5894 5896 5895 5895 5894 5893 5891 5889 5887 5886 5884 5882 5881 5879 5878 5877 5875 5873 5871 5869 5867 5866 5864 5862 5860 5858 5857 5854 5853 5851 5848 5846 5844 5841 5839 5837 5834 5832 5829 5826
5885 5887 5887 5888 5888 5890 5890 5890 5889 5887 5885 5883 5881 5880 5879 5877 5875 5874 5873 5871 5870 5868 5866 5864 5862 5861 5859 5857 5855 5853 5851 5849 5847 5845 5843 5841 5838 5836 5833 5831 5828 5825 5823 5820
5878 5880 5881 5883 5883 5884 5884 5883 5883 5880 5879 5877 5875 5874 5873 5871 5869 5869 5867 5866 5864 5862 5860 5859 5857 5855 5854 5852 5850 5848 5846 5844 5842 5840 5837 5835 5832 5830 5827 5824 5821 5818 5816 5813
5872 5874 5874 5878 5877 5877 5876 5875 5875 5873 5873 5871 5869 5867 5866 5864 5864 5863 5862 5860 5858 5856 5854 5853 5851 5849 5848 5846 5844 5842 5840 5838 5836 5833 5830 5828 5826 5823 5820 5818 5815 5811 5808 5805
5866 5867 5867 5870 5870 5870 5869 5868 5868 5867 5866 5865 5864 5861 5859 5857 5857 5857 5855 5853 5852 5850 5848 5846 5844 5843 5841 5839 5837 5835 5833 5831 5828 5826 5823 5821 5818 5816 5813 5810 5807 5804 5801 5797
5858 5859 5860 5862 5862 5862 5862 5860 5860 5860 5859 5858 5857 5856 5854 5851 5850 5849 5848 5846 5844 5843 5841 5839 5837 5836 5834 5832 5830 5828 5826 5824 5821 5819 5816 5814 5811 5808 5805 5802 5800 5796 5793 5790
5852 5852 5852 5854 5853 5854 5855 5854 5853 5852 5851 5851 5850 5849 5846 5844 5843 5842 5841 5839 5838 5836 5834 5832 5830 5828 5827 5825 5823 5821 5818 5816 5814 5811 5808 5806 5803 5800 5797 5795 5792 5789 5785 5782
5844 5845 5847 5846 5845 5846 5846 5845 5844 5843 5843 5843 5842 5840 5839 5837 5836 5834 5833 5832 5831 5829 5827 5825 5823 5821 5819 5818 5816 5813 5811 5808 5806 5803 5801 5798 5795 5792 5789 5787 5783 5780 5777 5774
5838 5839 5837 5836 5836 5836 5836 5836 5836 5836 5835 5835 5833 5832 5831 5830 5829 5828 5826 5825 5823 5822 5819 5817 5815 5813 5812 5810 5807 5805 5803 5801 5798 5795 5793 5790 5787 5784 5781 5778 5775 5772 5769 5766
5829 5829 5829 5828 5828 5828 5828 5828 5828 5828 5827 5826 5825 5824 5823 5823 5822 5821 5819 5818 5816 5814 5812 5810 5808 5806 5804 5802 5799 5797 5795 5792 5790 5787 5784 5782 5779 5776 5773 5770 5766 5763 5760 5757
5820 5821 5820 5820 5820 5820 5819 5819 5819 5819 5817 5817 5817 5817 5816 5815 5814 5813 5811 5810 5808 5807 5805 5803 5801 5798 5796 5794 5792 5789 5787 5784 5782 5779 5776 5773 5770 5768 5765 5762 5758 5755 5752 5748
5812 5812 5812 5811 5811 5811 5810 5810 5811 5811 5810 5810 5809 5809 5808 5808 5807 5805 5803 5802 5801 5799 5797 5795 5793 5791 5789 5786 5784 5781 5778 5776 5773 5771 5768 5765 5762 5760 5757 5754 5750 5747 5744 5740
5803 5803 5803 5804 5804 5804 5803 5803 5804 5804 5803 5802 5802 5801 5801 5800 5799 5798 5796 5795 5794 5792 5790 5788 5786 5784 5781 5779 5776 5773 5770 5768 5765 5763 5760 5757 5754 5752 5749 5746 5743 5740 5736 5733
5795 5795 5796 5797 5798 5797 5796 5796 5796 5796 5796 5795 5794 5793 5793 5793 5792 5791 5790 5788 5786 5785 5783 5780 5778 5776 5773 5771 5768 5766 5763 5760 5757 5755 5752 5749 5746 5743 5741 5738 5735 5732 5729 5725
5786 5787 5789 5790 5790 5790 5790 5790 5790 5790 5789 5789 5787 5787 5787 5786 5785 5784 5783 5781 5779 5777 5776 5774 5771 5769 5766 5764 5761 5758 5755 5753 5750 5747 5744 5741 5739 5736 5733 5730 5727 5724 5721 5718
5778 5780 5781 5782 5782 5783 5783 5783 5783 5783 5783 5782 5781 5781 5780 5780 5779 5778 5776 5774 5773 5771 5769 5767 5765 5762 5759 5756 5754 5751 5749 5746 5743 5740 5737 5735 5732 5729 5726 5723 5720 5717 5714 5710
5770 5772 5774 5775 5775 5776 5776 5776 5776 5776 5776 5776 5775 5775 5774 5773 5772 5771 5769 5768 5766 5764 5763 5760 5758 5756 5753 5750 5747 5744 5742 5739 5737 5733 5731 5728 5725 5722 5719 5716 5713 5710 5706 5703
5763 5765 5766 5767 5768 5768 5769 5769 5769 5769 5769 5769 5769 5768 5768 5767 5766 5764 5763 5762 5760 5759 5757 5754 5752 5749 5747 5744 5741 5738 5736 5733 5730 5727 5725 5722 5718 5715 5712 5709 5706 5703 5700 5696
5755 5757 5759 5760 5760 5761 5762 5762 5763 5763 5763 5763 5763 5762 5761 5760 5759 5758 5757 5755 5754 5752 5750 5748 5745 5743 5740 5737 5735 5732 5729 5727 5724 5721 5718 5715 5712 5709 5706 5703 5699 5696 5693 5690
5749 5750 5752 5753 5754 5754 5755 5756 5756 5756 5756 5756 5756 5756 5755 5754 5753 5751 5750 5749 5747 5746 5744 5741 5739 5736 5734 5731 5729 5726 5723 5720 5718 5715 5712 5709 5706 5703 5700 5697 5693 5690 5687 5683
5743 5744 5745 5746 5747 5748 5749 5749 5749 5750 5750 5750 5750 5749 5748 5747 5746 5744 5743 5742 5741 5739 5737 5735 5732 5730 5728 5725 5723 5720 5717 5714 5711 5708 5705 5703 5700 5697 5694 5691 5687 5684 5681 5678
5736 5738 5739 5740 5741 5742 5742 5743 5743 5744 5744 5744 5744 5743 5742 5741 5739 5738 5737 5736 5734 5732 5730 5728 5726 5723 5721 5719 5716 5713 5710 5708 5705 5702 5699 5696 5693 5690 5688 5685 5681 5678 5675 5672
5731 5732 5733 5733 5734 5735 5736 5737 5737 5738 5738 5738 5737 5737 5735 5734 5733 5732 5731 5730 5727 5725 5723 5721 5719 5717 5714 5712 5709 5707 5704 5701 5698 5695 5693 5690 5687 5684 5682 5679 5676 5672 5669 5666
5725 5726 5726 5727 5728 5729 5730 5731 5731 5731 5731 5731 5730 5729 5728 5727 5726 5725 5724 5722 5720 5718 5717 5715 5712 5710 5707 5705 5703 5700 5697 5695 5692 5689 5686 5684 5681 5678 5675 5672 5669 5666 5663 5661
5719 5720 5720 5721 5722 5722 5723 5724 5724 5724 5724 5724 5724 5723 5722 5721 5720 5719 5717 5715 5713 5712 5710 5708 5705 5703 5701 5699 5696 5693 5691 5688 5685 5682 5679 5676 5674 5671 5668 5666 5663 5660 5658 5655
5714 5714 5715 5715 5716 5716 5717 5717 5717 5717 5717 5717 5717 5717 5716 5715 5713 5712 5710 5709 5707 5705 5703 5701 5699 5696 5694 5692 5689 5687 5684 5681 5679 5676 5673 5670 5667 5664 5662 5659 5657 5654 5651 5649
5708 5709 5709 5710 5710 5710 5711 5711 5711 5711 5711 5711 5710 5709 5709 5708 5707 5706 5704 5702 5700 5698 5696 5694 5692 5690 5687 5685 5683 5680 5678 5675 5672 5669 5666 5663 5660 5658 5655 5653 5650 5647 5645 5642